Change the Weather History Date:

Tuesday, February 18, 2014

  Actual Average Record
Temperature  
Mean Temperature 52 °F -  
Max Temperature 62 °F 50 °F 66 °F (2004)
Min Temperature 41 °F 30 °F 19 °F (2008)
Degree Days  
Heating Degree Days 14    
Growing Degree Days 2 (Base 50)    
Moisture  
Dew Point 12 °F    
Average Humidity 21    
Maximum Humidity 29    
Minimum Humidity 12    
Precipitation  
Precipitation 0.00 in - - ()
Sea Level Pressure  
Sea Level Pressure 30.12 in    
Wind  
Wind Speed 11 mph (West)    
Max Wind Speed 23 mph    
Max Gust Speed 34 mph    
Visibility 10 miles    
Events      
Averages and records for this station are not official NWS values.
T = Trace of Precipitation, MM = Missing Value Source: NWS Daily Summary

Daily Weather History Graph

Daily Weather History Graph

Search for Another Location

Airport or City:

Trip Planner

Search our weather history database for the weather conditions in past years. The results will help you decide how hot, cold, wet, or windy it might be!

Date:

Astronomy

Feb. 18, 2014 Rise Set
Actual Time 6:42 AM MST 5:49 PM MST
Civil Twilight 6:17 AM MST 6:14 PM MST
Nautical Twilight 5:48 AM MST 6:43 PM MST
Astronomical Twilight 5:19 AM MST 7:12 PM MST
Moon 9:31 PM MST (2/18) 8:29 AM MST (2/18)
Length of Visible Light 11h 57m
Length of Day
11h 06m
Waning Gibbous, 87% of the Moon is Illuminated
Feb 18
Waning Gibbous
Feb 22
Last Quarter
Mar 1
New
Mar 8
First Quarter
Mar 16
Full

Hourly Weather History & Observations

Time (MST) Temp. Windchill Dew Point Humidity Pressure Visibility Wind Dir Wind Speed Gust Speed Precip Events Conditions
12:15 AM 46.4 °F 40.7 °F 10.4 °F 23% 30.17 in 10.0 mi South 12.7 mph - N/A   Clear
12:35 AM 46.4 °F 41.1 °F 10.4 °F 23% 30.17 in 10.0 mi South 11.5 mph - N/A   Clear
12:55 AM 46.4 °F 41.5 °F 10.4 °F 23% 30.16 in 10.0 mi SSW 10.4 mph - N/A   Clear
1:15 AM 44.6 °F 39.7 °F 10.4 °F 25% 30.15 in 10.0 mi South 9.2 mph - N/A   Clear
1:35 AM 44.6 °F 40.7 °F 10.4 °F 25% 30.15 in 10.0 mi South 6.9 mph - N/A   Clear
1:55 AM 44.6 °F 38.8 °F 10.4 °F 25% 30.14 in 10.0 mi SSE 11.5 mph - N/A   Clear
2:15 AM 44.6 °F 39.7 °F 10.4 °F 25% 30.13 in 10.0 mi SSE 9.2 mph - N/A   Clear
2:35 AM 41.0 °F 36.4 °F 10.4 °F 29% 30.12 in 10.0 mi South 6.9 mph - N/A   Clear
2:55 AM 41.0 °F 36.4 °F 10.4 °F 29% 30.11 in 10.0 mi SSE 6.9 mph - N/A   Clear
3:15 AM 41.0 °F 39.0 °F 10.4 °F 29% 30.10 in 10.0 mi SSE 3.5 mph - N/A   Clear
3:35 AM 42.8 °F - 10.4 °F 27% 30.10 in 10.0 mi Calm Calm - N/A   Clear
3:55 AM 44.6 °F 43.1 °F 10.4 °F 25% 30.10 in 10.0 mi SSW 3.5 mph - N/A   Clear
4:15 AM 44.6 °F 43.1 °F 12.2 °F 27% 30.10 in 10.0 mi SE 3.5 mph - N/A   Clear
4:35 AM 42.8 °F 40.1 °F 12.2 °F 29% 30.10 in 10.0 mi SE 4.6 mph - N/A   Clear
4:55 AM 46.4 °F 42.9 °F 14.0 °F 27% 30.09 in 10.0 mi WNW 6.9 mph 20.7 mph N/A   Clear
5:15 AM 50.0 °F - 14.0 °F 24% 30.09 in 10.0 mi West 12.7 mph 19.6 mph N/A   Clear
5:35 AM 48.2 °F - 14.0 °F 25% 30.09 in 10.0 mi WNW 8.1 mph - N/A   Clear
5:55 AM 50.0 °F - 14.0 °F 24% 30.10 in 10.0 mi West 16.1 mph 23.0 mph N/A   Clear
6:15 AM 51.8 °F - 14.0 °F 22% 30.11 in 10.0 mi WNW 13.8 mph 23.0 mph N/A   Clear
6:35 AM 48.2 °F - 14.0 °F 25% 30.11 in 10.0 mi West 12.7 mph 17.3 mph N/A   Clear
6:55 AM 50.0 °F - 12.2 °F 22% 30.11 in 10.0 mi West 17.3 mph 20.7 mph N/A   Clear
7:15 AM 50.0 °F - 12.2 °F 22% 30.13 in 10.0 mi West 11.5 mph - N/A   Clear
7:35 AM 51.8 °F - 14.0 °F 22% 30.13 in 10.0 mi West 12.7 mph 16.1 mph N/A   Clear
7:55 AM 53.6 °F - 14.0 °F 21% 30.14 in 10.0 mi West 10.4 mph - N/A   Clear
8:15 AM 55.4 °F - 14.0 °F 20% 30.14 in 10.0 mi WNW 16.1 mph 20.7 mph N/A   Clear
8:35 AM 55.4 °F - 14.0 °F 20% 30.15 in 10.0 mi NW 17.3 mph 27.6 mph N/A   Clear
8:55 AM 57.2 °F - 14.0 °F 18% 30.15 in 10.0 mi West 23.0 mph 34.5 mph N/A   Clear
9:15 AM 57.2 °F - 14.0 °F 18% 30.16 in 10.0 mi WNW 20.7 mph 28.8 mph N/A   Clear
9:35 AM 57.2 °F - 14.0 °F 18% 30.16 in 10.0 mi WNW 18.4 mph 29.9 mph N/A   Clear
9:55 AM 57.2 °F - 14.0 °F 18% 30.16 in 10.0 mi NW 17.3 mph 29.9 mph N/A   Clear
10:15 AM 57.2 °F - 15.8 °F 20% 30.17 in 10.0 mi NNW 16.1 mph 28.8 mph N/A   Clear
10:35 AM 57.2 °F - 15.8 °F 20% 30.17 in 10.0 mi NW 20.7 mph 29.9 mph N/A   Clear
10:55 AM 57.2 °F - 15.8 °F 20% 30.16 in 10.0 mi NW 17.3 mph 31.1 mph N/A   Clear
11:15 AM 57.2 °F - 15.8 °F 20% 30.16 in 10.0 mi NW 15.0 mph 29.9 mph N/A   Clear
11:35 AM 57.2 °F - 15.8 °F 20% 30.16 in 10.0 mi WNW 21.9 mph 33.4 mph N/A   Clear
11:55 AM 59.0 °F - 15.8 °F 19% 30.15 in 10.0 mi NW 16.1 mph 27.6 mph N/A   Clear
12:15 PM 59.0 °F - 15.8 °F 19% 30.14 in 10.0 mi NW 19.6 mph 29.9 mph N/A   Clear
12:35 PM 59.0 °F - 14.0 °F 17% 30.13 in 10.0 mi WNW 21.9 mph 31.1 mph N/A   Clear
12:55 PM 60.8 °F - 12.2 °F 15% 30.13 in 10.0 mi WNW 20.7 mph 26.5 mph N/A   Clear
1:15 PM 62.6 °F - 10.4 °F 13% 30.12 in 10.0 mi NW 19.6 mph 31.1 mph N/A   Clear
1:35 PM 62.6 °F - 10.4 °F 13% 30.11 in 10.0 mi West 16.1 mph 25.3 mph N/A   Clear
1:55 PM 62.6 °F - 10.4 °F 13% 30.10 in 10.0 mi WNW 19.6 mph 26.5 mph N/A   Clear
2:15 PM 62.6 °F - 8.6 °F 12% 30.10 in 10.0 mi WNW 16.1 mph 27.6 mph N/A   Clear
2:35 PM 62.6 °F - 8.6 °F 12% 30.10 in 10.0 mi WNW 18.4 mph 28.8 mph N/A   Clear
2:55 PM 62.6 °F - 8.6 °F 12% 30.10 in 10.0 mi NW 16.1 mph 21.9 mph N/A   Clear
3:15 PM 62.6 °F - 10.4 °F 13% 30.10 in 10.0 mi NW 15.0 mph 23.0 mph N/A   Clear
3:35 PM 62.6 °F - 10.4 °F 13% 30.10 in 10.0 mi WNW 10.4 mph 18.4 mph N/A   Clear
3:55 PM 60.8 °F - 10.4 °F 14% 30.10 in 10.0 mi NW 12.7 mph 17.3 mph N/A   Clear
4:15 PM 60.8 °F - 10.4 °F 14% 30.10 in 10.0 mi NW 10.4 mph 20.7 mph N/A   Clear
4:35 PM 59.0 °F - 10.4 °F 15% 30.11 in 10.0 mi WNW 12.7 mph 18.4 mph N/A   Clear
4:55 PM 57.2 °F - 10.4 °F 16% 30.10 in 10.0 mi West 12.7 mph 17.3 mph N/A   Clear
5:15 PM 57.2 °F - 10.4 °F 16% 30.11 in 10.0 mi West 8.1 mph - N/A   Clear
5:35 PM 55.4 °F - 10.4 °F 17% 30.11 in 10.0 mi West 9.2 mph - N/A   Clear
5:55 PM 53.6 °F - 10.4 °F 18% 30.12 in 10.0 mi WSW 8.1 mph - N/A   Clear
6:15 PM 53.6 °F - 10.4 °F 18% 30.12 in 10.0 mi SW 9.2 mph - N/A   Clear
6:35 PM 51.8 °F - 10.4 °F 19% 30.13 in 10.0 mi SW 5.8 mph - N/A   Clear
6:55 PM 50.0 °F - 10.4 °F 20% 30.12 in 10.0 mi SW 10.4 mph - N/A   Clear
7:15 PM 51.8 °F - 10.4 °F 19% 30.12 in 10.0 mi West 9.2 mph - N/A   Clear
7:35 PM 55.4 °F - 10.4 °F 17% 30.12 in 10.0 mi WSW 10.4 mph - N/A   Clear
7:55 PM 53.6 °F - 10.4 °F 18% 30.12 in 10.0 mi West 9.2 mph - N/A   Clear
8:15 PM 50.0 °F - 10.4 °F 20% 30.12 in 10.0 mi WSW 11.5 mph - N/A   Clear
8:35 PM 48.2 °F - 10.4 °F 22% 30.12 in 10.0 mi SW 6.9 mph - N/A   Clear
8:55 PM 50.0 °F - 12.2 °F 22% 30.12 in 10.0 mi West 9.2 mph - N/A   Clear
9:15 PM 46.4 °F 42.9 °F 10.4 °F 23% 30.13 in 10.0 mi SE 6.9 mph - N/A   Clear
9:35 PM 48.2 °F - 10.4 °F 22% 30.12 in 10.0 mi SSE 3.5 mph - N/A   Clear
9:55 PM 48.2 °F - 12.2 °F 24% 30.11 in 10.0 mi SE 6.9 mph - N/A   Clear
10:35 PM 48.2 °F - 12.2 °F 24% 30.11 in 10.0 mi ESE 3.5 mph - N/A   Clear
10:55 PM 48.2 °F - 12.2 °F 24% 30.10 in 10.0 mi NE 3.5 mph - N/A   Clear
11:15 PM 46.4 °F 45.2 °F 12.2 °F 25% 30.10 in 10.0 mi NE 3.5 mph - N/A   Clear
11:35 PM 44.6 °F - 12.2 °F 27% 30.10 in 10.0 mi Calm Calm - N/A   Clear
11:55 PM 44.6 °F - 10.4 °F 25% 30.09 in 10.0 mi Calm Calm - N/A   Clear